Location: Launay
(47.2429°N, 1.5727°E)
Time: 21:01:04
(UTC+00:00)

ARIANE 6 FM1 Upper Stage - Pass Details

Date: 19 May 2025
Orbit: 530 x 611 km, 62.0° (Epoch: 21 June)

Event Time Altitude Azimuth Distance (km) Brightness Sun altitude
Rises 20:16:59 0° 208° (SSW) 2,660 6.0 -7.5°
Reaches altitude 10° 20:19:11 10° 203° (SSW) 1,773 5.0 -7.8°
Maximum altitude 20:23:03 53° 127° (SE) 662 2.7 -8.3°
Drops below altitude 10° 20:26:58 10° 50° (NE) 1,796 5.2 -8.8°
Sets 20:29:13 0° 46° (NE) 2,699 6.1 -9.1°
